This is the latest recevied weather packets stored in our database for station/object N7ZAP. If no packets are shown the sender has not sent any weather packets the latest 10 day(s).
| Time | Temp. | Humidity | Pressure | Rain* | Wind** | Luminosity | Snow |
|---|---|---|---|---|---|---|---|
| 1788454516 | 31.11° C | 26% | 1021.7 hPa | 0 mm | - | - | - |
| 1788454212 | 31.11° C | 27% | 1021.7 hPa | 0 mm | - | - | - |
| 1788453912 | 31.67° C | 26% | 1021.6 hPa | 0 mm | - | - | - |
| 1788453608 | 31.11° C | 28% | 1021.7 hPa | 0 mm | - | - | - |
| 1788453303 | 31.11° C | 27% | 1021.4 hPa | 0 mm | - | - | - |
| 1788452999 | 31.11° C | 28% | 1021.7 hPa | 0 mm | - | - | - |
| 1788452695 | 31.11° C | 28% | 1021.4 hPa | 0 mm | - | - | - |
| 1788452390 | 30.56° C | 29% | 1021.4 hPa | 0 mm | - | - | - |
| 1788452085 | 30.56° C | 28% | 1021.8 hPa | 0 mm | - | - | - |
| 1788451802 | 30° C | 28% | 1021.8 hPa | 0 mm | - | - | - |
| 1788451480 | 30° C | 29% | 1021.4 hPa | 0 mm | - | - | - |
| 1788451179 | 29.44° C | 29% | 1021.6 hPa | 0 mm | - | - | - |
| 1788450879 | 30° C | 28% | 1021.7 hPa | 0 mm | - | - | - |
| 1788450576 | 29.44° C | 29% | 1021.8 hPa | 0 mm | - | - | - |
| 1788450271 | 29.44° C | 29% | 1021.7 hPa | 0 mm | - | - | - |
| 1788449967 | 29.44° C | 29% | 1021.7 hPa | 0 mm | - | - | - |
| 1788449662 | 28.89° C | 29% | 1021.8 hPa | 0 mm | - | - | - |
| 1788449358 | 28.89° C | 29% | 1021.6 hPa | 0 mm | - | - | - |
| 1788449054 | 28.33° C | 31% | 1021.6 hPa | 0 mm | - | - | - |
| 1788448755 | 27.78° C | 32% | 1021.6 hPa | 0 mm | - | - | - |
| 1788448450 | 26.67° C | 31% | 1021.8 hPa | 0 mm | - | - | - |
| 1788448150 | 26.67° C | 32% | 1021.6 hPa | 0 mm | - | - | - |
| 1788447845 | 26.11° C | 32% | 1021.7 hPa | 0 mm | - | - | - |
| 1788447539 | 25.56° C | 32% | 1021.6 hPa | 0 mm | - | - | - |
| 1788447235 | 25.56° C | 32% | 1021.8 hPa | 0 mm | - | - | - |
* Rain latest hour (hover to see other rain measurements)
** Current wind speed in m/s (hover to see current wind gust speed)